Regional Weather Roundup
Issued by NWS

Home | Current Version | Previous Version | Text Only | Print | Product List | Glossary On
Versions: 1 2 3 4 5 6 7 8 9 10 11 12 13 14 15 16 17 18 19 20 21 22 23 24 25 26 27 28 29 30 31 32 33 34 35 36 37 38 39 40 41 42 43 44 45 46 47 48 49 50
000
ASUS45 KSLC 250410
RWRUT

UTAH REGIONAL WEATHER ROUNDUP
NATIONAL WEATHER SERVICE SALT LAKE CITY UT
1000 PM MDT SUN MAY 24 2015

UTZ001>011-023>025-250500-

NORTHERN UTAH

CITY           SKY/WX    TMP DP  RH WIND       PRES   REMARKS
BRIGHAM CITY   MOCLDY    56  49  79 E5        29.91S
HILL AFB       MOCLDY    52  46  82 SE2       29.93R
LOGAN          MOCLDY    55  47  74 CALM      29.90R
OGDEN          MOCLDY    52  49  89 S6        29.91S
PROVO AIRPORT  MOCLDY    55  45  67 CALM      29.92S
SALT LAKE CITY CLOUDY    61  47  59 N10       29.90R
VERNAL         LGT RAIN  50  44  80 NW3       29.95R
WENDOVER       CLOUDY    61  43  51 CALM      29.92S
HEBER CITY     CLOUDY    52  41  66 CALM      29.95R
WEST JORDAN    MOCLDY    55  45  67 W3        29.93R

$$

UTZ012>022-026-027-250500-

SOUTHERN/CENTRAL UTAH

CITY           SKY/WX    TMP DP  RH WIND       PRES   REMARKS
BLANDING       PTCLDY    51  44  76 NE5       30.02R
BRYCE CANYON   MOCLDY    45  38  76 W12       30.04R
CEDAR CITY     MOCLDY    51  45  79 CALM      29.97R
DELTA          PTCLDY    54  44  68 NW5       29.94R
HANKSVILLE     CLOUDY    61  45  55 SW9       29.89R
MILFORD        CLOUDY    54  49  83 CALM      29.95R
MOAB/CYNLANDS  CLOUDY    58  41  53 NE9       29.85R
PRICE          MOCLDY    53  37  54 N8        29.92R
ST GEORGE      MOCLDY    64  46  52 SW7       29.91R

$$

REGIONAL REPORTS     COLORADO/ARIZONA

CITY           SKY/WX    TMP DP  RH WIND       PRES   REMARKS
CRAIG, CO      CLOUDY    45  40  82 S3        29.97R
GRAND JUNCTION CLOUDY    50  49  96 CALM      29.92R
RIFLE          LGT RAIN  47  44  90 CALM      29.98R
MONTROSE       LGT RAIN  49  44  83 E5        29.97R
CORTEZ         PTCLDY    47  41  80 CALM      29.96R
PAGE, AZ       MOCLDY    63  46  54 CALM      29.91R
GRAND CANYON   LGT RAIN  48  45  89 SW5       30.05R
KINGMAN        MOCLDY    69  37  30 SW9       29.91R
FLAGSTAFF      MOCLDY    43  42  97 CALM      30.07R

$$

REGIONAL REPORTS    NEVADA/IDAHO/WYOMING

CITY           SKY/WX    TMP DP  RH WIND       PRES   REMARKS
LAS VEGAS, NV  CLOUDY    74  50  42 N9        29.79R
ELY            PTCLDY    47  41  80 NW3       30.03R
ELKO           MOCLDY    52  44  74 VRB6      29.98S
POCATELLO, ID  PTCLDY    53  47  79 S9        29.92R
BURLEY         CLOUDY    51  48  89 SW6       29.91R
EVANSTON, WY   MOCLDY    42  40  92 SW10      29.97R
ROCK SPRINGS   CLOUDY    43  39  86 E8        29.99R
KEMMERER       CLOUDY    41  41 100 S3        30.00R

$$



USA.gov is the U.S. government's official web portal to all federal, state and local government web resources and services.